COSMOS 1275 DEB, 12670

Orbit data source: Space-Track

COSMOS 1275 DEB, 12670 is space debris in LEO originally from a launch on Thu, 04 Jun 1981 UTC launched from the Plesetsk Missile And Space Complex (PKMTR). Debris objects in space refer to the collection of defunct objects orbiting the Earth. Examples of debris include non-operational satellites, rocket bodies, and fragments generated from explosions, collisions, or faulty payload assembly.

Loading next visibility...
Identifier
12670, 1981-053AA
Orbit
LEO
Last TLE update
13 hours ago
Origin
Manufacturer
Unknown
Mission
Spacecraft
Bus & Motor
Unknown
Mass
Unknown
Launch date (UTC)
1981-06-04 (44 years ago)
Launch vehicle
Unknown
Launch site
Plesetsk Missile And Space Complex (PKMTR)
Object type
Payload
Rocket body
Debris
Shape & HBR
Unknown
Radar Cross Section
Medium (>0.1 m² and <1 m²)

Expand to show TLE details & history

TLE from 13 hours ago
0 COSMOS 1275 DEB
1 12670U 81053AA  25181.87199122  .00000323  00000-0  28933-3 0  9995
2 12670  82.9406 107.5070 0055607 337.2419  84.0824 13.80781563205284
Epoch: 2025-06-30T20:55Z
TLE epoch observation values (Epoch: 2025-06-30T20:55:40.041Z)
Latitude
61.24572°
Longitude
-112.61131°
Altitude
967.601 km
Speed
7.376 km/s
True Right ascension
08h 01m 55s
True Declination
61° 06' 17"
Sunlit
Object was in daylight at epoch
Visualization orbit readout
Latitude
-5.47941°
Longitude
54.69348°
Altitude
1,000.325 km
Speed
7.333 km/s
Apparent Right ascension
16h 34m 06s
Apparent Declination
-49° 03' 02"
Sunlit
Object is in full shadow
Visualization observer readout
Local Sidereal Time
21:20:28
Azimuth
221.13° SW
Elevation
-19.021°
Doppler factor
1
Orbital elements
Apogee altitude
999.052 km
Perigee altitude
917.461 km
Semi-major axis
7,336.394 km
Eccentricity
0.00556
Inclination
82.9406°
RAAN
107.507°
Arg. of periapsis
337.2419°
True anomaly
Unknown
Mean anomaly
84.0824°
Eccentric anomaly
Unknown
Mean motion
3.45398 °/min
Orbital period
104.23 mins
BSTAR
0.00028933
Loading maneuver chart data...
Loading SW <> Apogee altitude chart data...
Loading historical data...
Loading historical data...
Loading historical data...
Loading historical data...
Loading historical data...
Loading historical data...
Loading historical data...

COSMOS 1275 DEB Visibility forecast

Observer location: undefined°, undefined°

Span
Click to sort rows by Start time (UTC) header in descending order
Start Az.
Max El. time (UTC)
Max El. Az.
Max El.
End time (UTC)
End Az.
11 mins2025-07-01 19:20:09.032Z168.018° S2025-07-01 19:26:09.032Z78.857° E39.516°2025-07-01 19:31:09.032Z17.108° NNE
7 mins2025-07-01 21:08:09.032Z253.022° W2025-07-01 21:11:09.032Z288.005° WNW19.245°2025-07-01 21:15:09.032Z332.639° NNW
10 mins2025-07-02 06:16:09.032Z12.59° NNE2025-07-02 06:20:09.032Z66.057° ENE34.673°2025-07-02 06:26:09.032Z147.313° SSE
8 mins2025-07-02 08:02:09.032Z315.757° NNW2025-07-02 08:05:09.032Z277.664° WNW24.604°2025-07-02 08:10:09.032Z221.583° SW
|